ROMMA est une association bénévole à but non lucratif. Votre soutien est indispensable : ADHERER à ROMMA ou FAIRE un DON

Voiron - (38, Isère)

Voironnais (300 m)   Longitude: 05° 35' E   Latitude: 45° 23' N Station partenaire n°109
 

Détail journalier du     <<     >>

Température Precipitation Humidité Pression Vent Dir Rafale Dir. rafale Ensol.
Heure (°C) (mm) (%) (hPa) (km/h) (km/h) (min)
01:00 13.909310222SE5SE0
02:00 13.309310221N6NO0
03:00 13.109410221E8SSE0
04:00 12.9094102203SSO0
05:00 13.709310221SSO5SO0
06:00 13.9093102303SO0
07:00 13.709410221S6S0
08:00 15.908610221SO8NNO30
09:00 16.707910239N21N30
10:00 18.107410224NE18NE0
11:00 18.907010228N26N0
12:00 20.1066102211N31ENE30
13:00 21.1062102213N29NNO60
14:00 22.3061102111N29NNO30
15:00 23.4057102013N31NNO60
16:00 24.2054102015N32NNO60
17:00 24.8053102015N34NO60
18:00 24.8056101912N31NNO60
19:00 24.4058101915NNO29NNO60
20:00 23.8060101915NNO31NNO60
21:00 22.8063101912NNO24NNO60
22:00 20.607210194N15NNO0
23:00 18.807810193NNO10NNO0
minuit 17.708210191NNO5NNO0

Graphique du 16-06-2019

 

Serveur OMMA